MJONE EGGP-EGCC

Flight info

Callsign MJONE
Flight time 0h 18m
Altitude 3500
Route BARTN DCT TINVA DCT FD23R DCT 30VO2
Aircraft PC24/M-SBDGIRWY/LB2

Departure

Time 2026-05-04 15:04
Airport Liverpool John Lennon Airport (EGGP)

Arrival

Time 2026-05-04 15:22
Airport Manchester Airport (EGCC)
Time Latitude Longitude Altitude Speed Heading
2026-05-04 14:47 53.33721 -2.83937 65 ft 0 kts 175°
2026-05-04 15:01 53.33702 -2.83935 63 ft 6 kts 175°
2026-05-04 15:01 53.33667 -2.83930 67 ft 7 kts 175°
2026-05-04 15:02 53.33594 -2.83920 68 ft 10 kts 168°
2026-05-04 15:02 53.33583 -2.83809 66 ft 13 kts 85°
2026-05-04 15:02 53.33585 -2.83665 70 ft 11 kts 113°
2026-05-04 15:02 53.33533 -2.83635 72 ft 7 kts 173°
2026-05-04 15:03 53.33461 -2.83622 72 ft 15 kts 177°
2026-05-04 15:03 53.33418 -2.83788 75 ft 35 kts 265°
2026-05-04 15:03 53.33377 -2.84661 71 ft 114 kts 264°
2026-05-04 15:03 53.33306 -2.86265 438 ft 150 kts 268°
2026-05-04 15:04 53.33260 -2.88103 1197 ft 172 kts 270°
2026-05-04 15:04 53.33219 -2.90310 1592 ft 195 kts 272°
2026-05-04 15:04 53.33674 -2.92162 1876 ft 164 kts 322°
2026-05-04 15:04 53.34705 -2.92538 1985 ft 154 kts 13°
2026-05-04 15:05 53.35669 -2.91888 2117 ft 151 kts 22°
2026-05-04 15:05 53.36726 -2.91119 2456 ft 168 kts 22°
2026-05-04 15:05 53.37779 -2.90395 2722 ft 165 kts 22°
2026-05-04 15:05 53.38852 -2.89673 2986 ft 166 kts 22°
2026-05-04 15:06 53.39950 -2.88946 3238 ft 177 kts 22°
2026-05-04 15:06 53.41140 -2.88157 3274 ft 189 kts 21°
2026-05-04 15:06 53.42393 -2.87328 3315 ft 192 kts 22°
2026-05-04 15:07 53.43568 -2.83454 3345 ft 220 kts 96°
2026-05-04 15:07 53.43445 -2.80896 3358 ft 226 kts 84°
2026-05-04 15:07 53.43783 -2.78264 3393 ft 230 kts 75°
2026-05-04 15:07 53.44190 -2.75703 3482 ft 230 kts 75°
2026-05-04 15:08 53.44612 -2.73091 3491 ft 232 kts 75°
2026-05-04 15:08 53.45033 -2.70489 3492 ft 230 kts 75°
2026-05-04 15:08 53.45446 -2.67937 3484 ft 229 kts 75°
2026-05-04 15:08 53.45864 -2.65351 3482 ft 228 kts 75°
2026-05-04 15:09 53.46277 -2.62792 3479 ft 227 kts 75°
2026-05-04 15:09 53.46709 -2.60300 3467 ft 215 kts 66°
2026-05-04 15:09 53.47512 -2.58279 3471 ft 205 kts 51°
2026-05-04 15:10 53.49294 -2.54528 3476 ft 208 kts 51°
2026-05-04 15:10 53.50202 -2.52606 3479 ft 210 kts 51°
2026-05-04 15:10 53.52020 -2.48750 3487 ft 211 kts 51°
2026-05-04 15:11 53.52934 -2.46810 3486 ft 211 kts 51°
2026-05-04 15:11 53.53839 -2.44892 3486 ft 210 kts 51°
2026-05-04 15:11 53.54751 -2.42954 3485 ft 210 kts 51°
2026-05-04 15:11 53.55659 -2.41020 3483 ft 209 kts 52°
2026-05-04 15:12 53.56318 -2.38865 3483 ft 209 kts 68°
2026-05-04 15:12 53.56837 -2.36572 3497 ft 209 kts 69°
2026-05-04 15:12 53.57349 -2.34269 3500 ft 211 kts 69°
2026-05-04 15:12 53.57857 -2.31976 3503 ft 211 kts 69°
2026-05-04 15:13 53.58372 -2.29655 3503 ft 208 kts 69°
2026-05-04 15:13 53.58864 -2.27427 3491 ft 202 kts 69°
2026-05-04 15:13 53.59352 -2.25214 3489 ft 199 kts 69°
2026-05-04 15:13 53.59828 -2.23056 3494 ft 198 kts 69°
2026-05-04 15:14 53.60312 -2.20868 3492 ft 199 kts 69°
2026-05-04 15:14 53.60752 -2.18677 3482 ft 200 kts 81°
2026-05-04 15:14 53.60418 -2.16458 3490 ft 202 kts 128°
2026-05-04 15:14 53.59381 -2.14870 3510 ft 201 kts 140°
2026-05-04 15:15 53.58327 -2.13353 3507 ft 201 kts 140°
2026-05-04 15:15 53.57250 -2.11814 3508 ft 203 kts 140°
2026-05-04 15:15 53.56169 -2.10278 3506 ft 203 kts 140°
2026-05-04 15:16 53.54029 -2.07247 3506 ft 201 kts 140°
2026-05-04 15:16 53.52955 -2.05729 3513 ft 201 kts 140°
2026-05-04 15:16 53.50779 -2.02803 3506 ft 199 kts 151°
2026-05-04 15:17 53.49512 -2.01931 3505 ft 199 kts 164°
2026-05-04 15:17 53.47009 -2.02487 3504 ft 193 kts 234°
2026-05-04 15:17 53.46435 -2.04503 3516 ft 192 kts 241°
2026-05-04 15:18 53.45621 -2.06329 3304 ft 199 kts 231°
2026-05-04 15:18 53.44759 -2.08115 3025 ft 193 kts 232°
2026-05-04 15:18 53.43925 -2.09854 2759 ft 189 kts 231°
2026-05-04 15:19 53.42306 -2.13192 2247 ft 181 kts 231°
2026-05-04 15:19 53.41521 -2.14808 1977 ft 174 kts 231°
2026-05-04 15:19 53.40199 -2.17551 1576 ft 135 kts 232°
2026-05-04 15:20 53.39617 -2.18749 1386 ft 129 kts 231°
2026-05-04 15:20 53.39060 -2.19898 1179 ft 127 kts 231°
2026-05-04 15:20 53.38500 -2.21038 995 ft 124 kts 230°
2026-05-04 15:20 53.37972 -2.22127 854 ft 120 kts 232°
2026-05-04 15:21 53.37455 -2.23235 721 ft 120 kts 231°
2026-05-04 15:21 53.37101 -2.23965 615 ft 122 kts 230°
2026-05-04 15:21 53.36038 -2.26123 294 ft 119 kts 231°
2026-05-04 15:22 53.35554 -2.27121 248 ft 95 kts 230°
2026-05-04 15:22 53.35299 -2.27684 236 ft 33 kts 243°
2026-05-04 15:22 53.35233 -2.28138 226 ft 10 kts 261°
2026-05-04 15:23 53.35251 -2.28217 227 ft 7 kts 338°
2026-05-04 15:23 53.35314 -2.28191 229 ft 11 kts 17°
2026-05-04 15:23 53.35387 -2.28166 231 ft 12 kts
2026-05-04 15:23 53.35451 -2.28150 232 ft 13 kts 11°
2026-05-04 15:24 53.35540 -2.28132 229 ft 11 kts
2026-05-04 15:24 53.35591 -2.28134 232 ft 0 kts 328°
2026-05-04 15:25 53.35592 -2.28134 232 ft 0 kts 352°
2026-05-04 15:25 53.35593 -2.28129 232 ft 0 kts 66°
2026-05-04 15:25 53.35591 -2.28125 232 ft 0 kts 127°